Terminal Aerodrome Forecast
Issued by NWS Atlanta, GA

Home | Current Version | Previous Version | Text Only | Print | Product List | Glossary On
Versions: 1 2 3 4 5 6 7 8 9 10 11 12 13 14 15 16 17 18 19 20 21 22 23 24 25 26 27 28 29 30 31 32
599
FTAK31 PAJN 251742
TAFAHN
TAF
PAHN 251742Z 2518/2618 29008KT P6SM VCSH BKN050 OVC080
     FM252100 VRB05KT P6SM SCT050 BKN080
     FM260000 12005KT P6SM SCT050 BKN080
     FM260600 VRB03KT P6SM VCSH BKN050 OVC080
     FM261500 30005KT P6SM FEW015 BKN050
      AMD LTD TO CLD VIS AND WIND=

USA.gov is the U.S. government's official web portal to all federal, state and local government web resources and services.